ARG1708 SABE-SAAR

Flight info

Callsign ARG1708
Flight time 0h 34m
Altitude 20000
Route ATOVO4B ATOVO W5 ESKON
Aircraft B738/M-SDE2E3FGHIRWXY/LB1

Departure

Time 2026-04-23 23:56
Airport Aeroparque Jorge Newbery (SABE)

Arrival

Time 2026-04-24 00:31
Airport Rosario Islas Malvinas International Airport (SAAR)
Time Latitude Longitude Altitude Speed Heading
2026-04-23 23:10 -34.56032 -58.40915 25 ft 0 kts 38°
2026-04-23 23:18 -34.55650 -58.41532 26 ft 0 kts
2026-04-23 23:18 -34.56060 -58.40943 28 ft 0 kts 90°
2026-04-23 23:18 -34.55968 -58.41017 26 ft 0 kts 58°
2026-04-23 23:45 -34.55971 -58.41021 25 ft 2 kts 59°
2026-04-23 23:45 -34.55974 -58.41028 25 ft 3 kts 58°
2026-04-23 23:45 -34.55981 -58.41041 29 ft 3 kts 52°
2026-04-23 23:45 -34.55989 -58.41052 28 ft 3 kts 34°
2026-04-23 23:46 -34.56004 -58.41058 28 ft 2 kts 353°
2026-04-23 23:46 -34.56023 -58.41057 30 ft 2 kts
2026-04-23 23:46 -34.56030 -58.41058 30 ft 0 kts
2026-04-23 23:50 -34.56027 -58.41057 30 ft 2 kts
2026-04-23 23:50 -34.55981 -58.41073 27 ft 9 kts 328°
2026-04-23 23:51 -34.55937 -58.41124 25 ft 9 kts 312°
2026-04-23 23:51 -34.55898 -58.41179 26 ft 8 kts 311°
2026-04-23 23:51 -34.55861 -58.41234 24 ft 8 kts 306°
2026-04-23 23:51 -34.55876 -58.41290 26 ft 8 kts 214°
2026-04-23 23:52 -34.55908 -58.41332 29 ft 7 kts 266°
2026-04-23 23:52 -34.55891 -58.41384 27 ft 7 kts 296°
2026-04-23 23:52 -34.55869 -58.41433 24 ft 8 kts 297°
2026-04-23 23:52 -34.55833 -58.41519 28 ft 15 kts 297°
2026-04-23 23:53 -34.55783 -58.41639 27 ft 16 kts 296°
2026-04-23 23:53 -34.55734 -58.41757 24 ft 15 kts 300°
2026-04-23 23:53 -34.55677 -58.41863 25 ft 15 kts 304°
2026-04-23 23:53 -34.55620 -58.41963 25 ft 14 kts 304°
2026-04-23 23:54 -34.55566 -58.42059 28 ft 13 kts 307°
2026-04-23 23:54 -34.55511 -58.42148 26 ft 13 kts 307°
2026-04-23 23:54 -34.55458 -58.42233 27 ft 13 kts 307°
2026-04-23 23:54 -34.55405 -58.42317 27 ft 12 kts 307°
2026-04-23 23:55 -34.55369 -58.42395 27 ft 10 kts 281°
2026-04-23 23:55 -34.55364 -58.42478 24 ft 9 kts 252°
2026-04-23 23:55 -34.55411 -58.42493 26 ft 8 kts 139°
2026-04-23 23:55 -34.55451 -58.42426 25 ft 17 kts 124°
2026-04-23 23:56 -34.55678 -58.42020 26 ft 100 kts 124°
2026-04-23 23:56 -34.56209 -58.41072 73 ft 164 kts 123°
2026-04-23 23:56 -34.56852 -58.39912 987 ft 163 kts 122°
2026-04-23 23:56 -34.57357 -58.38651 1804 ft 172 kts 94°
2026-04-23 23:57 -34.57139 -58.37163 2345 ft 190 kts 69°
2026-04-23 23:57 -34.56440 -58.35695 2717 ft 212 kts 47°
2026-04-23 23:57 -34.55206 -58.34600 2952 ft 235 kts 33°
2026-04-23 23:57 -34.53748 -58.33492 3262 ft 257 kts 33°
2026-04-23 23:58 -34.52209 -58.32301 3947 ft 265 kts 33°
2026-04-23 23:58 -34.50635 -58.31083 4705 ft 271 kts 33°
2026-04-23 23:58 -34.49009 -58.29863 5469 ft 276 kts 26°
2026-04-23 23:58 -34.47177 -58.29309 6262 ft 277 kts 358°
2026-04-23 23:59 -34.45314 -58.29808 7084 ft 276 kts 332°
2026-04-23 23:59 -34.43815 -58.31245 7860 ft 276 kts 308°
2026-04-23 23:59 -34.42689 -58.33142 8638 ft 279 kts 302°
2026-04-23 23:59 -34.41628 -58.35130 9416 ft 282 kts 301°
2026-04-24 00:00 -34.40573 -58.37152 10201 ft 285 kts 301°
2026-04-24 00:00 -34.39497 -58.39216 10651 ft 300 kts 301°
2026-04-24 00:00 -34.38331 -58.41441 10821 ft 324 kts 301°
2026-04-24 00:00 -34.37079 -58.43815 11050 ft 343 kts 301°
2026-04-24 00:01 -34.35776 -58.46269 11550 ft 351 kts 302°
2026-04-24 00:01 -34.34441 -58.48770 12285 ft 353 kts 302°
2026-04-24 00:01 -34.33103 -58.51269 13049 ft 354 kts 302°
2026-04-24 00:01 -34.31771 -58.53752 13772 ft 357 kts 302°
2026-04-24 00:02 -34.30413 -58.56280 14447 ft 360 kts 302°
2026-04-24 00:02 -34.29041 -58.58829 15184 ft 361 kts 301°
2026-04-24 00:02 -34.27667 -58.61380 15942 ft 362 kts 301°
2026-04-24 00:02 -34.26289 -58.63939 16686 ft 364 kts 301°
2026-04-24 00:03 -34.24901 -58.66511 17403 ft 366 kts 301°
2026-04-24 00:03 -34.23506 -58.69097 18148 ft 367 kts 301°
2026-04-24 00:03 -34.22118 -58.71666 19029 ft 361 kts 301°
2026-04-24 00:03 -34.20751 -58.74191 19771 ft 358 kts 300°
2026-04-24 00:04 -34.19411 -58.76668 20092 ft 354 kts 300°
2026-04-24 00:04 -34.18065 -58.79156 20139 ft 353 kts 300°
2026-04-24 00:04 -34.16722 -58.81636 20158 ft 353 kts 300°
2026-04-24 00:04 -34.15374 -58.84126 20161 ft 354 kts 300°
2026-04-24 00:05 -34.14028 -58.86608 20162 ft 354 kts 300°
2026-04-24 00:05 -34.12678 -58.89097 20164 ft 354 kts 300°
2026-04-24 00:05 -34.11328 -58.91583 20163 ft 354 kts 300°
2026-04-24 00:05 -34.09975 -58.94072 20160 ft 354 kts 300°
2026-04-24 00:06 -34.08639 -58.96529 20159 ft 354 kts 300°
2026-04-24 00:06 -34.07270 -58.99046 20157 ft 354 kts 300°
2026-04-24 00:06 -34.05933 -59.01500 20160 ft 354 kts 300°
2026-04-24 00:06 -34.04580 -59.03983 20161 ft 354 kts 300°
2026-04-24 00:07 -34.03227 -59.06465 20156 ft 354 kts 300°
2026-04-24 00:07 -34.01873 -59.08946 20158 ft 354 kts 300°
2026-04-24 00:07 -34.00518 -59.11427 20160 ft 353 kts 300°
2026-04-24 00:07 -33.99165 -59.13903 20158 ft 353 kts 300°
2026-04-24 00:08 -33.97812 -59.16377 20156 ft 353 kts 301°
2026-04-24 00:08 -33.96459 -59.18850 20154 ft 353 kts 301°
2026-04-24 00:08 -33.95105 -59.21323 20158 ft 353 kts 301°
2026-04-24 00:08 -33.93767 -59.23765 20157 ft 353 kts 301°
2026-04-24 00:09 -33.92414 -59.26233 20161 ft 353 kts 301°
2026-04-24 00:09 -33.91061 -59.28699 20159 ft 353 kts 301°
2026-04-24 00:09 -33.89707 -59.31166 20159 ft 353 kts 301°
2026-04-24 00:09 -33.88345 -59.33645 20158 ft 353 kts 301°
2026-04-24 00:10 -33.86989 -59.36112 20157 ft 353 kts 301°
2026-04-24 00:10 -33.85631 -59.38579 20154 ft 353 kts 301°
2026-04-24 00:10 -33.84273 -59.41046 20152 ft 353 kts 301°
2026-04-24 00:10 -33.82916 -59.43510 20152 ft 353 kts 301°
2026-04-24 00:11 -33.81555 -59.45979 20158 ft 353 kts 301°
2026-04-24 00:11 -33.80196 -59.48443 20155 ft 353 kts 301°
2026-04-24 00:11 -33.78869 -59.50848 20157 ft 353 kts 301°
2026-04-24 00:11 -33.77510 -59.53308 20160 ft 353 kts 301°
2026-04-24 00:12 -33.76149 -59.55771 20159 ft 354 kts 301°
2026-04-24 00:12 -33.74788 -59.58232 20156 ft 354 kts 301°
2026-04-24 00:12 -33.73442 -59.60665 20158 ft 354 kts 301°
2026-04-24 00:12 -33.72081 -59.63123 20156 ft 354 kts 301°
2026-04-24 00:13 -33.70716 -59.65585 20152 ft 354 kts 301°
2026-04-24 00:13 -33.69261 -59.67973 20156 ft 355 kts 306°
2026-04-24 00:13 -33.67681 -59.70251 20156 ft 355 kts 307°
2026-04-24 00:13 -33.66074 -59.72510 20153 ft 356 kts 307°
2026-04-24 00:14 -33.64462 -59.74764 20149 ft 356 kts 307°
2026-04-24 00:14 -33.62853 -59.77018 20152 ft 356 kts 307°
2026-04-24 00:14 -33.61247 -59.79276 20150 ft 356 kts 307°
2026-04-24 00:14 -33.59642 -59.81536 20154 ft 356 kts 307°
2026-04-24 00:15 -33.58579 -59.83037 20151 ft 354 kts 307°
2026-04-24 00:15 -33.56464 -59.86021 20143 ft 348 kts 307°
2026-04-24 00:15 -33.54889 -59.88218 20150 ft 348 kts 310°
2026-04-24 00:15 -33.53710 -59.89544 20146 ft 352 kts 317°
2026-04-24 00:16 -33.51790 -59.91386 19859 ft 353 kts 318°
2026-04-24 00:16 -33.50041 -59.93359 19853 ft 342 kts 308°
2026-04-24 00:16 -33.48642 -59.95672 19853 ft 344 kts 299°
2026-04-24 00:16 -33.47386 -59.98161 19386 ft 351 kts 299°
2026-04-24 00:17 -33.45740 -60.01427 18621 ft 343 kts 299°
2026-04-24 00:17 -33.44907 -60.03079 18117 ft 341 kts 299°
2026-04-24 00:17 -33.43685 -60.05505 17251 ft 340 kts 299°
2026-04-24 00:17 -33.42460 -60.07935 16408 ft 340 kts 300°
2026-04-24 00:18 -33.41254 -60.10327 15637 ft 339 kts 300°
2026-04-24 00:18 -33.40035 -60.12744 14890 ft 338 kts 300°
2026-04-24 00:18 -33.38819 -60.15154 14159 ft 338 kts 300°
2026-04-24 00:18 -33.37604 -60.17560 13457 ft 337 kts 300°
2026-04-24 00:19 -33.36393 -60.19955 12830 ft 334 kts 300°
2026-04-24 00:19 -33.35195 -60.22325 12202 ft 331 kts 301°
2026-04-24 00:19 -33.34021 -60.24643 11738 ft 325 kts 301°
2026-04-24 00:19 -33.32877 -60.26903 11571 ft 309 kts 301°
2026-04-24 00:20 -33.31789 -60.29050 11360 ft 297 kts 301°
2026-04-24 00:20 -33.29443 -60.33676 10712 ft 280 kts 301°
2026-04-24 00:20 -33.28432 -60.35669 10307 ft 279 kts 302°
2026-04-24 00:21 -33.27426 -60.37649 9860 ft 279 kts 302°
2026-04-24 00:21 -33.26421 -60.39626 9432 ft 277 kts 302°
2026-04-24 00:21 -33.25419 -60.41598 8913 ft 280 kts 302°
2026-04-24 00:21 -33.24399 -60.43602 8365 ft 284 kts 302°
2026-04-24 00:22 -33.23375 -60.45612 7964 ft 283 kts 302°
2026-04-24 00:22 -33.22350 -60.47625 7601 ft 284 kts 302°
2026-04-24 00:22 -33.21405 -60.49480 7301 ft 283 kts 302°
2026-04-24 00:22 -33.20383 -60.51486 6973 ft 282 kts 302°
2026-04-24 00:23 -33.19361 -60.53489 6635 ft 282 kts 302°
2026-04-24 00:23 -33.18340 -60.55491 6285 ft 282 kts 302°
2026-04-24 00:23 -33.17319 -60.57490 5950 ft 281 kts 302°
2026-04-24 00:23 -33.16304 -60.59477 5616 ft 280 kts 303°
2026-04-24 00:24 -33.15293 -60.61455 5288 ft 279 kts 303°
2026-04-24 00:24 -33.14278 -60.63440 4996 ft 277 kts 303°
2026-04-24 00:24 -33.13615 -60.64738 4840 ft 274 kts 303°
2026-04-24 00:24 -33.12323 -60.67263 4668 ft 266 kts 303°
2026-04-24 00:25 -33.11353 -60.69156 4560 ft 267 kts 303°
2026-04-24 00:25 -33.10382 -60.71047 4441 ft 268 kts 303°
2026-04-24 00:25 -33.09748 -60.72317 4303 ft 271 kts 300°
2026-04-24 00:25 -33.08726 -60.75140 3746 ft 281 kts 294°
2026-04-24 00:26 -33.08249 -60.76606 3376 ft 287 kts 294°
2026-04-24 00:26 -33.07532 -60.78779 3020 ft 277 kts 296°
2026-04-24 00:26 -33.06423 -60.80517 2855 ft 254 kts 329°
2026-04-24 00:26 -33.04847 -60.81173 2722 ft 231 kts 355°
2026-04-24 00:27 -33.03333 -60.81309 2611 ft 210 kts
2026-04-24 00:27 -33.01965 -60.81128 2463 ft 186 kts 11°
2026-04-24 00:27 -33.00692 -60.80890 2135 ft 188 kts 12°
2026-04-24 00:27 -32.99453 -60.80591 2102 ft 168 kts 14°
2026-04-24 00:28 -32.98386 -60.80320 1966 ft 145 kts 16°
2026-04-24 00:28 -32.97501 -60.80062 1743 ft 126 kts 16°
2026-04-24 00:28 -32.96652 -60.79887 1401 ft 126 kts 12°
2026-04-24 00:28 -32.95783 -60.79704 1164 ft 126 kts 15°
2026-04-24 00:29 -32.94937 -60.79483 953 ft 124 kts 16°
2026-04-24 00:29 -32.94046 -60.79282 735 ft 132 kts 11°
2026-04-24 00:29 -32.93142 -60.79092 558 ft 132 kts 13°
2026-04-24 00:29 -32.92244 -60.78890 268 ft 133 kts 11°
2026-04-24 00:30 -32.91350 -60.78694 100 ft 121 kts 11°
2026-04-24 00:30 -32.90606 -60.78524 95 ft 97 kts 11°
2026-04-24 00:30 -32.90008 -60.78389 95 ft 79 kts 11°
2026-04-24 00:30 -32.89532 -60.78281 98 ft 50 kts 11°
2026-04-24 00:31 -32.89319 -60.78234 96 ft 31 kts 11°
2026-04-24 00:31 -32.89123 -60.78172 97 ft 20 kts 34°
2026-04-24 00:31 -32.89047 -60.78140 96 ft 6 kts 322°
2026-04-24 00:31 -32.89046 -60.78164 96 ft 2 kts 232°
2026-04-24 00:32 -32.89084 -60.78180 99 ft 11 kts 192°
2026-04-24 00:32 -32.89195 -60.78206 96 ft 22 kts 191°
2026-04-24 00:32 -32.89373 -60.78246 98 ft 30 kts 190°
2026-04-24 00:32 -32.89596 -60.78296 99 ft 32 kts 191°
2026-04-24 00:33 -32.89807 -60.78345 99 ft 29 kts 190°
2026-04-24 00:33 -32.89993 -60.78385 97 ft 26 kts 191°
2026-04-24 00:33 -32.90164 -60.78425 96 ft 25 kts 191°
2026-04-24 00:33 -32.90354 -60.78468 94 ft 31 kts 190°
2026-04-24 00:34 -32.90577 -60.78519 96 ft 34 kts 191°
2026-04-24 00:34 -32.90816 -60.78568 98 ft 34 kts 183°
2026-04-24 00:34 -32.91038 -60.78504 96 ft 32 kts 155°
2026-04-24 00:34 -32.91216 -60.78356 95 ft 31 kts 140°
2026-04-24 00:35 -32.91370 -60.78209 97 ft 23 kts 141°
2026-04-24 00:35 -32.91455 -60.78168 95 ft 10 kts 198°
2026-04-24 00:35 -32.91521 -60.78198 94 ft 10 kts 204°
2026-04-24 00:35 -32.91568 -60.78166 94 ft 9 kts 111°
2026-04-24 00:36 -32.91580 -60.78129 96 ft 2 kts 110°
2026-04-24 00:36 -32.91582 -60.78125 95 ft 0 kts 111°